User: anonymous   Login
Location: Charbonni�res
(45.9952°N, 2.9982°E)
Time: 18:47:58
(UTC+00:00)
Language:

NOAA 16 DEB - Orbit

View from above orbital plane
View from above orbital plane
View from above satellite
View from above satellite

Ground track
Ground track

The orbit data is extracted from the following two-line orbital elements,

1 41707U 00055PM  21171.19816049  .00000881  00000-0  42301-3 0  9999
2 41707  98.8096 265.5708 0035451  78.0711 282.4437 14.21139670267982
Epoch (UTC): 20 June 2021 04:45:21
Eccentricity: 0.0035451
inclination: 98.8096°
perigee height: 796 km
apogee height: 847 km
right ascension of ascending node: 265.5708°
argument of perigee: 78.0711°
revolutions per day: 14.21139670
mean anomaly at epoch: 282.4437°
orbit number at epoch: 26798

The dashed part of the orbit path shows where the satellite is in the earth's shadow,  

DLR